Location: *
(42.1160°S, 166.9240°W)
Time: 11:22:37
(UTC+00:00)

Daily predictions for brighter satellites

Satellite Brightness Start Highest point End
(mag) Time Altitude Azimuth Time Altitude Azimuth Time Altitude Azimuth
Lacrosse 5 3.5 12:05:48 21° ENE 12:05:48 21° ENE 12:09:23 10° ESE
Cosmos 2058 3.6 12:05:19 10° S 12:09:31 48° E 12:09:53 47° E
BREEZE-M DEB (TANK) 3.8 12:09:06 42° WNW 12:10:28 53° NNW 12:24:40 10° NE
Cosmos 2082 3.9 12:10:17 51° WNW 12:11:23 61° WSW 12:17:06 10° SSE
Meteor 2-21 4.4 12:15:12 53° N 12:16:48 88° E 12:23:03 10° S
Cosmos 1110 Rocket 4.3 12:11:54 10° SSW 12:17:01 51° WNW 12:17:01 51° WNW
STPSAT 2 (USA 217) 4.5 12:17:16 85° WNW 12:17:20 86° WSW 12:21:59 10° SSE
Cosmos 2154 Rocket 4.3 12:17:28 46° WNW 12:18:53 56° WSW 12:25:07 10° S
ADEOS Rocket 4.1 12:19:21 24° W 12:19:21 24° W 12:23:39 10° SW
IRS-1D 3.8 12:19:12 43° NE 12:20:53 69° ESE 12:26:15 10° S
Cosmos 2341 Rocket 4.0 12:20:16 52° NNW 12:21:51 75° W 12:28:10 10° S
Cosmos 1908 4.1 12:22:25 43° E 12:22:33 43° E 12:26:22 10° SSE
Cosmos 1626 2.8 12:19:56 10° SSW 12:22:56 51° SW 12:22:56 51° SW
Cosmos 1900 4.3 12:19:10 10° SSW 12:24:10 84° ESE 12:25:26 51° NE
Geosat 4.0 12:22:11 10° SSE 12:27:17 72° ENE 12:28:10 58° N
Meteor 2-16 Rocket 4.5 12:27:59 44° NNE 12:30:01 75° E 12:36:11 10° SSE
ATLAS 5 CENTAUR R/B 1.8 12:24:50 10° SW 12:30:10 86° ESE 12:31:38 46° NE
Meteor 1-11 4.4 12:26:25 10° SSW 12:32:14 62° W 12:33:27 51° NW
Cosmos 1743 Rocket 3.4 12:29:51 10° SSW 12:34:16 74° W 12:34:22 74° WNW
Cosmos 2237 Rocket 3.4 12:30:38 10° SW 12:34:42 26° W 12:34:42 26° W
Cosmos 1703 3.4 12:32:07 10° SSW 12:35:53 68° WSW 12:35:53 68° WSW
NPP 4.1 12:38:03 42° WNW 12:38:27 43° W 12:43:39 10° SSW
Cosmos 2263 Rocket 4.1 12:37:07 14° NE 12:40:04 20° E 12:44:05 10° SE
Cosmos 2227 Rocket 3.5 12:38:51 24° W 12:40:58 30° SW 12:45:57 10° S
Cosmos 1500 Rocket 3.4 12:37:06 10° S 12:41:37 81° W 12:42:06 69° NNW
CZ-4C R/B 3.5 12:41:48 10° S 12:44:30 51° SSW 12:44:30 51° SSW
CZ-2D R/B 2.1 12:44:12 50° NNW 12:45:28 66° WNW 12:50:48 10° SSW
Cosmos-2242 4.5 12:46:47 25° WSW 12:46:53 25° WSW 12:50:32 10° SSW
Genesis I 3.5 12:43:32 10° SSW 12:47:22 64° SE 12:48:34 39° ENE
Cosmos 2227 4.5 12:45:30 39° N 12:47:25 60° ENE 12:53:02 10° SSE
SL-19 R/B 4.3 12:46:49 10° SSE 12:49:40 53° E 12:49:40 53° E
Cosmos 1300 4.4 12:48:57 22° NE 12:50:19 27° E 12:53:40 10° SSE
IRS-1C 4.4 12:49:52 43° NW 12:50:38 46° W 12:55:52 10° SSW
Cosmos 2333 Rocket 4.4 12:52:27 10° W 12:52:28 10° W 12:52:28 10° W
Cosmos 2218 Rocket 4.0 12:51:57 39° NNW 12:54:27 79° W 13:00:48 10° S
Cosmos 1842 Rocket 3.9 12:54:56 47° WNW 12:55:30 50° W 12:59:59 10° S
Spot 4 Rocket 4.1 12:55:00 46° NNW 12:56:18 61° W 13:01:30 10° SSW
Helios 1A Rocket 3.9 12:57:05 32° W 12:57:05 32° W 13:00:28 10° SSW
Cosmos 864 Rocket 4.5 12:55:01 37° N 12:57:46 86° W 13:04:14 10° S
Cosmos 2251 Rocket 4.3 12:56:26 32° W 12:57:57 39° WSW 13:02:55 10° S
Cosmos 1689 Rocket 2.3 12:55:26 10° SSE 12:58:31 77° S 12:58:31 77° S
SL-8 Rocket 4.1 12:57:02 39° NW 12:59:15 60° W 13:05:26 10° S
ADEOS II 3.6 12:55:02 10° NE 12:59:45 34° ESE 13:04:32 10° S
Cosmos 1726 2.4 13:01:34 52° NNE 13:02:15 65° E 13:06:03 10° SSE
ATLAS CENTAUR R/B 3.6 13:02:20 16° W 13:04:43 23° SW 13:08:38 10° S
Cosmos 2366 rocket 4.1 13:04:45 35° NNW 13:07:34 70° W 13:13:57 10° S
SeaSat 1 3.6 13:08:28 25° W 13:08:28 25° W 13:12:02 10° SW
ADEOS 3.5 13:06:54 35° N 13:09:06 70° WNW 13:14:25 10° SSW
ATLAS 3B R/B 2.6 13:07:00 34° NNW 13:10:14 87° ENE 13:17:19 10° SE
Cosmos 2297 Rocket 3.9 13:09:00 15° W 13:11:57 22° SW 13:16:19 10° S
SL-16 R/B 3.0 13:09:31 10° SW 13:14:28 31° WNW 13:15:03 30° WNW
Cosmos 1633 Rocket 4.4 13:11:01 10° S 13:15:12 39° ESE 13:19:22 10° NNE
Cosmos 1992 Rocket 4.0 13:09:59 10° SSW 13:15:20 88° ESE 13:19:33 16° NNE
Okean O Rocket 4.5 13:12:45 10° ENE 13:15:34 17° ESE 13:18:23 10° SSE
USA 215 3.4 13:12:53 10° NE 13:19:27 80° SE 13:26:05 10° SW
Cosmos 1603 3.6 13:14:38 10° SSW 13:20:20 82° WNW 13:25:43 11° NNE
TELKOM 3 3.9 13:19:36 27° SW 13:20:51 61° SSE 13:24:15 10° ENE
Cosmos 2221 2.7 13:20:00 42° NW 13:21:09 57° W 13:25:28 10° S
USA 238 DEB 3.8 13:19:08 29° NW 13:23:12 85° SW 13:30:28 10° SE
USA 238 3.8 13:19:14 29° NW 13:23:17 86° WSW 13:30:34 10° SE
SL-16 R/B 4.1 13:19:05 10° SE 13:24:31 30° E 13:29:55 10° NNE
Cosmos 1805 Rocket 3.4 13:22:07 10° S 13:26:32 81° W 13:28:46 29° N
Lacrosse 4 Rocket 2.5 13:25:10 10° SSW 13:29:35 49° ESE 13:33:58 10° NE
Sich 1 3.2 13:26:15 10° S 13:30:39 74° E 13:33:54 17° NNE
CZ-4B R/B 2.7 13:29:07 10° S 13:32:19 29° WSW 13:32:55 27° W
Cosmos 1821 Rocket 4.3 13:27:21 15° N 13:32:25 63° E 13:38:31 10° SSE
Resurs 1-4 Rocket 3.3 13:33:06 23° WNW 13:33:56 24° W 13:38:13 10° SW
ARIANE 5 R/B 3.4 13:33:41 27° WNW 13:35:01 31° W 13:39:41 10° SW
UNKNOWN OBJECT B 3.3 13:40:14 32° NW 13:41:29 42° W 13:45:22 10° SSW
Cosmos 1666 Rocket 3.5 13:37:16 10° S 13:41:48 87° W 13:45:14 17° N
Meteor 2-10 4.0 13:39:33 24° NNW 13:42:44 77° W 13:47:55 10° S
Lacrosse 5 2.1 13:44:59 24° WNW 13:48:03 68° SW 13:53:13 10° SE
Cosmos 1867 4.2 13:48:18 10° SSW 13:53:41 60° SE 13:59:01 10° NE
In-Cosmos 22 Rocket 4.1 13:49:58 10° SSW 13:55:28 79° W 14:01:02 10° N
NOSS 3-3 (A) 4.2 13:51:49 10° SSW 13:58:31 77° SE 14:04:37 10° NE
NOSS 3-3 (C) 4.2 13:51:56 10° SSW 13:58:38 77° SE 14:04:43 10° NE
SL-08 R/B 3.4 13:54:24 10° SSE 13:59:18 78° ENE 14:03:26 14° N
OE (NEXTSAT) 4.4 13:56:57 10° WSW 14:00:32 61° NNW 14:04:06 10° NE
Cosmos 407 Rocket 3.5 13:56:46 19° NNW 14:00:40 85° WSW 14:06:08 10° SSE
NOSS 3-2 (C) 4.1 13:54:44 17° NNW 14:01:21 78° ENE 14:08:56 10° SE
Cosmos 1190 Rocket 4.0 13:58:58 19° NNW 14:02:42 76° WSW 14:08:00 10° SSE
Cosmos 2098 Rocket 3.2 14:05:33 24° WNW 14:06:35 31° WSW 14:09:33 10° SSW
NOSS 3-2 (A) 4.1 14:01:42 18° NW 14:08:14 80° SW 14:15:47 10° SE
Cosmos 1455 3.0 14:05:11 10° N 14:08:58 52° E 14:12:52 10° SSE
Cosmos 1605 Rocket 4.5 14:03:36 10° N 14:09:51 63° E 14:16:05 10° SSE
NOSS 2-1 (C) 4.4 14:04:26 10° SW 14:12:00 79° WNW 14:17:26 10° NNE
NOSS 2-1 (D) 4.4 14:04:44 10° SW 14:12:15 78° WNW 14:17:37 10° NNE
Cosmos 1934 Rocket 4.0 14:06:17 10° N 14:12:30 85° W 14:18:55 10° S
ATLAS 5 CENTAUR R/B 3.8 14:12:24 10° W 14:13:05 11° W 14:13:05 11° W
CENTAUR R/B 3.9 14:08:03 10° N 14:15:33 43° ENE 14:22:19 10° SE
Cosmos 1943 3.4 14:14:16 10° SW 14:19:47 50° WNW 14:25:17 10° N
Cosmos 2123 Rocket 4.0 14:13:37 10° S 14:19:54 86° W 14:26:07 10° N
Cosmos 1461 4.1 14:16:37 10° SSW 14:20:29 43° SE 14:24:13 10° NE
Cosmos 2263 Rocket 2.4 14:18:49 15° NW 14:23:28 58° WSW 14:29:06 10° SSE
Cosmos 220 Rocket 4.0 14:20:20 11° NNW 14:24:23 81° ENE 14:28:43 10° SSE
Cosmos 1300 4.4 14:23:58 14° WNW 14:26:01 20° WSW 14:28:57 10° SSW
CZ-4B R/B 3.4 14:21:24 10° NNE 14:26:54 81° ESE 14:32:23 10° SSW
Cosmos 1515 Rocket 3.8 14:31:43 10° NNW 14:36:08 57° W 14:40:35 10° S
Meteor 1-27 4.3 14:33:09 10° NNW 14:38:43 67° WSW 14:44:24 10° S
NOSS 2-1 (E) 4.5 14:32:20 10° SW 14:39:19 54° WNW 14:44:26 10° NNE
ADEOS II 2.9 14:34:47 10° NNW 14:39:27 31° W 14:44:11 10° SSW
Cosmos 1328 Rocket 4.4 14:36:11 11° NW 14:40:12 36° WSW 14:44:24 10° S
Cosmos 676 Rocket 4.2 14:35:33 10° NNW 14:40:43 58° WSW 14:46:00 10° SSE
Cosmos 1470 Rocket 4.0 14:38:53 10° SSW 14:43:13 45° W 14:47:31 10° NNW
Cosmos 614 Rocket 4.0 14:41:05 10° NNW 14:46:10 75° WSW 14:51:19 10° SSE
Okean O Rocket 1.9 14:47:14 10° N 14:51:31 50° W 14:55:51 10° SSW
GRACE-1 3.9 14:49:09 10° NNW 14:51:42 52° W 14:54:19 10° S
CZ-4B R/B 3.7 14:47:52 10° NNW 14:52:05 37° W 14:56:16 10° SSW
Iridium 43 4.2 14:49:54 10° N 14:52:39 72° E 14:55:44 10° S
Cosmos 2228 Rocket 4.0 14:48:58 10° NW 14:53:02 34° WSW 14:57:12 10° S
Meteor 2-17 Rocket 4.5 14:47:51 10° N 14:53:56 85° W 15:00:07 10° S
Cosmos 1892 3.8 14:50:53 10° SSW 14:54:17 28° W 14:57:39 10° NNW
Exosat Rocket 3.9 14:51:21 10° NNW 14:57:40 63° WSW 15:02:49 10° SSE
Cosmos 1741 Rocket 4.3 14:52:32 10° NNW 14:57:46 75° ENE 15:03:03 10° SSE
MOZ.5/SAFIR/RUBIN 5/SL-8 3.9 14:54:03 10° S 14:58:51 71° WSW 15:03:32 10° NNW
Cosmos 1151 Rocket 3.8 14:55:49 10° NW 14:59:49 36° WSW 15:03:55 10° S
ATLAS 3B R/B 4.2 14:56:17 10° W 15:01:52 26° SW 15:07:42 10° SSE
USA 215 4.0 14:57:20 10° N 15:02:51 29° NW 15:08:25 10° WSW
